Time,TemperatureF,DewpointF,PressureIn,WindDirection,WindDirectionDegrees,WindSpeedMPH,WindSpeedGustMPH,Humidity,HourlyPrecipIn,Conditions,Clouds,dailyrainin,SoftwareType,DateUTC
2013-03-05 00:02:00,38.0,23.0,-100.00,WSW,246,1.0,2.0,56,0.00,,,-99.99,,2013-03-05 05:02:00,
2013-03-05 00:12:00,38.0,23.0,-100.00,WSW,246,1.0,2.0,56,0.00,,,-99.99,,2013-03-05 05:12:00,
2013-03-05 00:22:00,38.0,24.0,-100.00,West,261,2.0,3.0,57,0.00,,,-99.99,,2013-03-05 05:22:00,
2013-03-05 00:32:00,38.0,24.0,-100.00,West,275,1.0,2.0,58,0.00,,,-99.99,,2013-03-05 05:32:00,
2013-03-05 00:42:00,38.0,24.0,-100.00,West,275,1.0,2.0,58,0.00,,,-99.99,,2013-03-05 05:42:00,
2013-03-05 00:52:00,38.0,24.0,-100.00,SW,223,0.0,1.0,57,0.00,,,-99.99,,2013-03-05 05:52:00,
2013-03-05 01:02:00,38.0,23.0,-100.00,West,281,2.0,3.0,54,0.00,,,-99.99,,2013-03-05 06:02:00,
2013-03-05 01:11:00,38.0,23.0,-100.00,West,281,2.0,3.0,54,0.00,,,-99.99,,2013-03-05 06:11:00,
2013-03-05 01:22:00,38.0,22.0,-100.00,WNW,288,2.0,3.0,51,0.00,,,-99.99,,2013-03-05 06:22:00,
2013-03-05 01:32:00,39.0,22.0,-100.00,WNW,299,0.0,1.0,52,0.00,,,-99.99,,2013-03-05 06:32:00,
2013-03-05 01:42:00,39.0,22.0,-100.00,WNW,299,0.0,1.0,52,0.00,,,-99.99,,2013-03-05 06:42:00,
2013-03-05 01:52:00,38.0,22.0,-100.00,WNW,299,0.0,1.0,52,0.00,,,-99.99,,2013-03-05 06:52:00,
2013-03-05 02:01:00,39.0,24.0,-100.00,NE,40,0.0,0.0,54,0.00,,,-99.99,,2013-03-05 07:01:00,
2013-03-05 02:11:00,39.0,24.0,-100.00,NE,40,0.0,0.0,54,0.00,,,-99.99,,2013-03-05 07:11:00,
2013-03-05 02:22:00,39.0,22.0,-100.00,West,272,2.0,2.0,49,0.00,,,-99.99,,2013-03-05 07:22:00,
2013-03-05 02:32:00,39.0,20.0,-100.00,NNW,336,1.0,2.0,46,0.00,,,-99.99,,2013-03-05 07:32:00,
2013-03-05 02:42:00,39.0,20.0,-100.00,NNW,336,1.0,2.0,46,0.00,,,-99.99,,2013-03-05 07:42:00,
2013-03-05 02:52:00,39.0,22.0,-100.00,WSW,257,1.0,1.0,50,0.00,,,-99.99,,2013-03-05 07:52:00,
2013-03-05 03:02:00,39.0,23.0,-100.00,NW,309,0.0,1.0,53,0.00,,,-99.99,,2013-03-05 08:02:00,
2013-03-05 03:11:00,39.0,23.0,-100.00,NW,309,0.0,1.0,53,0.00,,,-99.99,,2013-03-05 08:11:00,
2013-03-05 03:21:00,39.0,24.0,-100.00,North,10,1.0,1.0,53,0.00,,,-99.99,,2013-03-05 08:21:00,
2013-03-05 03:32:00,39.0,24.0,-100.00,NW,315,0.0,0.0,53,0.00,,,-99.99,,2013-03-05 08:32:00,
2013-03-05 03:42:00,39.0,24.0,-100.00,NW,315,0.0,0.0,53,0.00,,,-99.99,,2013-03-05 08:42:00,
2013-03-05 03:52:00,40.0,22.0,-100.00,NE,42,0.0,0.0,48,0.00,,,-99.99,,2013-03-05 08:52:00,
2013-03-05 04:02:00,40.0,24.0,-100.00,NE,45,1.0,2.0,54,0.00,,,-99.99,,2013-03-05 09:02:00,
2013-03-05 04:11:00,40.0,24.0,-100.00,NE,45,1.0,2.0,54,0.00,,,-99.99,,2013-03-05 09:11:00,
2013-03-05 04:21:00,41.0,20.0,-100.00,NE,41,0.0,1.0,43,0.00,,,-99.99,,2013-03-05 09:21:00,
2013-03-05 04:32:00,41.0,25.0,-100.00,North,0,1.0,2.0,52,0.00,,,-99.99,,2013-03-05 09:32:00,
2013-03-05 04:43:00,41.0,25.0,-100.00,North,0,1.0,2.0,52,0.00,,,-99.99,,2013-03-05 09:43:00,
2013-03-05 04:52:00,40.0,26.0,-100.00,NNW,333,0.0,1.0,56,0.00,,,-99.99,,2013-03-05 09:52:00,
2013-03-05 05:02:00,40.0,26.0,-100.00,NNW,333,0.0,1.0,56,0.00,,,-99.99,,2013-03-05 10:02:00,
2013-03-05 05:11:00,40.0,26.0,-100.00,NNW,333,0.0,1.0,56,0.00,,,-99.99,,2013-03-05 10:11:00,
2013-03-05 05:22:00,40.0,26.0,-100.00,SW,236,2.0,3.0,57,0.00,,,-99.99,,2013-03-05 10:22:00,
2013-03-05 05:32:00,40.0,23.0,-100.00,WNW,295,2.0,3.0,51,0.00,,,-99.99,,2013-03-05 10:32:00,
2013-03-05 05:42:00,40.0,23.0,-100.00,WNW,295,2.0,3.0,51,0.00,,,-99.99,,2013-03-05 10:42:00,
2013-03-05 05:52:00,41.0,23.0,-100.00,West,278,3.0,5.0,49,0.00,,,-99.99,,2013-03-05 10:52:00,
2013-03-05 06:02:00,40.0,24.0,-100.00,SW,232,1.0,3.0,51,0.00,,,-99.99,,2013-03-05 11:02:00,
2013-03-05 06:11:00,40.0,24.0,-100.00,SW,232,1.0,3.0,51,0.00,,,-99.99,,2013-03-05 11:11:00,
2013-03-05 06:22:00,40.0,23.0,-100.00,West,280,3.0,5.0,50,0.00,,,-99.99,,2013-03-05 11:22:00,
2013-03-05 06:32:00,41.0,22.0,-100.00,South,178,0.0,1.0,46,0.00,,,-99.99,,2013-03-05 11:32:00,
2013-03-05 06:42:00,41.0,22.0,-100.00,South,178,0.0,1.0,46,0.00,,,-99.99,,2013-03-05 11:42:00,
2013-03-05 06:52:00,42.0,22.0,-100.00,South,179,2.0,4.0,45,0.00,,,-99.99,,2013-03-05 11:52:00,
2013-03-05 07:02:00,41.0,23.0,-100.00,SW,223,3.0,5.0,48,0.04,,,-99.99,,2013-03-05 12:02:00,
2013-03-05 07:12:00,41.0,23.0,-100.00,SW,223,3.0,5.0,48,0.04,,,-99.99,,2013-03-05 12:12:00,
2013-03-05 07:22:00,40.0,26.0,-100.00,NE,54,0.0,1.0,57,0.00,,,-99.99,,2013-03-05 12:22:00,
2013-03-05 07:32:00,39.0,27.0,-100.00,North,357,0.0,1.0,63,0.00,,,-99.99,,2013-03-05 12:32:00,
2013-03-05 07:42:00,39.0,27.0,-100.00,North,357,0.0,1.0,63,0.00,,,-99.99,,2013-03-05 12:42:00,
2013-03-05 07:52:00,38.0,28.0,-100.00,SW,229,2.0,4.0,67,0.06,,,-99.99,,2013-03-05 12:52:00,
2013-03-05 08:02:00,37.0,29.0,-100.00,WSW,257,4.0,5.0,74,0.01,,,-99.99,,2013-03-05 13:02:00,
2013-03-05 08:12:00,37.0,29.0,-100.00,WSW,257,4.0,5.0,74,0.01,,,-99.99,,2013-03-05 13:12:00,
2013-03-05 08:22:00,37.0,30.0,-100.00,WSW,253,4.0,5.0,76,0.27,,,-99.99,,2013-03-05 13:22:00,
2013-03-05 08:32:00,35.0,31.0,-100.00,NNE,32,1.0,2.0,85,0.14,,,-99.99,,2013-03-05 13:32:00,
2013-03-05 08:42:00,35.0,31.0,-100.00,NNE,32,1.0,2.0,85,0.14,,,-99.99,,2013-03-05 13:42:00,
2013-03-05 08:52:00,35.0,33.0,-100.00,ESE,119,0.0,0.0,90,0.38,,,-99.99,,2013-03-05 13:52:00,
2013-03-05 09:02:00,35.0,32.0,-100.00,ESE,119,1.0,2.0,90,0.09,,,-99.99,,2013-03-05 14:02:00,
2013-03-05 09:11:00,35.0,32.0,-100.00,ESE,119,1.0,2.0,90,0.09,,,-99.99,,2013-03-05 14:11:00,
2013-03-05 09:22:00,36.0,34.0,-100.00,SSW,203,0.0,1.0,92,0.14,,,-99.99,,2013-03-05 14:22:00,
2013-03-05 09:32:00,38.0,36.0,-100.00,West,261,5.0,6.0,95,0.07,,,-99.99,,2013-03-05 14:32:00,
2013-03-05 09:42:00,38.0,36.0,-100.00,West,261,5.0,6.0,95,0.07,,,-99.99,,2013-03-05 14:42:00,
2013-03-05 09:52:00,39.0,37.0,-100.00,West,264,2.0,4.0,92,0.11,,,-99.99,,2013-03-05 14:52:00,
2013-03-05 10:02:00,37.0,36.0,-100.00,East,93,1.0,2.0,94,0.09,,,-99.99,,2013-03-05 15:02:00,
2013-03-05 10:11:00,37.0,36.0,-100.00,East,93,1.0,2.0,94,0.09,,,-99.99,,2013-03-05 15:11:00,
2013-03-05 10:22:00,39.0,38.0,-100.00,NW,304,1.0,2.0,96,0.10,,,-99.99,,2013-03-05 15:22:00,
2013-03-05 10:32:00,39.0,38.0,-100.00,NW,325,1.0,2.0,96,0.11,,,-99.99,,2013-03-05 15:32:00,
2013-03-05 10:42:00,39.0,38.0,-100.00,NW,325,1.0,2.0,96,0.11,,,-99.99,,2013-03-05 15:42:00,
2013-03-05 10:52:00,38.0,37.0,-100.00,SSW,212,1.0,2.0,96,0.16,,,-99.99,,2013-03-05 15:52:00,
2013-03-05 11:02:00,37.0,36.0,-100.00,SW,234,0.0,1.0,97,0.00,,,-99.99,,2013-03-05 16:02:00,
2013-03-05 11:11:00,37.0,36.0,-100.00,SW,234,0.0,1.0,97,0.00,,,-99.99,,2013-03-05 16:11:00,
2013-03-05 11:22:00,39.0,38.0,-100.00,SSW,203,1.0,2.0,98,0.00,,,-99.99,,2013-03-05 16:22:00,
2013-03-05 11:32:00,39.0,38.0,-100.00,NNE,27,1.0,2.0,97,0.07,,,-99.99,,2013-03-05 16:32:00,
2013-03-05 11:42:00,39.0,38.0,-100.00,NNE,27,1.0,2.0,97,0.07,,,-99.99,,2013-03-05 16:42:00,
2013-03-05 11:52:00,39.0,38.0,-100.00,South,169,1.0,2.0,98,0.10,,,-99.99,,2013-03-05 16:52:00,
2013-03-05 12:01:00,40.0,39.0,-100.00,SW,220,3.0,4.0,98,0.07,,,-99.99,,2013-03-05 17:01:00,
2013-03-05 12:11:00,40.0,39.0,-100.00,SW,220,3.0,4.0,98,0.07,,,-99.99,,2013-03-05 17:11:00,
2013-03-05 12:22:00,40.0,40.0,-100.00,SW,216,1.0,3.0,98,0.07,,,-99.99,,2013-03-05 17:22:00,
2013-03-05 12:32:00,41.0,40.0,-100.00,SE,130,2.0,2.0,98,0.04,,,-99.99,,2013-03-05 17:32:00,
2013-03-05 12:42:00,41.0,40.0,-100.00,SE,130,2.0,2.0,98,0.04,,,-99.99,,2013-03-05 17:42:00,
2013-03-05 12:53:00,42.0,41.0,-100.00,East,97,1.0,3.0,98,0.01,,,-99.99,,2013-03-05 17:53:00,
2013-03-05 13:02:00,43.0,42.0,-100.00,SSW,202,2.0,4.0,98,0.00,,,-99.99,,2013-03-05 18:02:00,
2013-03-05 13:11:00,43.0,42.0,-100.00,SSW,202,2.0,4.0,98,0.00,,,-99.99,,2013-03-05 18:11:00,
2013-03-05 13:22:00,43.0,42.0,-100.00,SSW,209,2.0,4.0,97,0.06,,,-99.99,,2013-03-05 18:22:00,
2013-03-05 13:32:00,42.0,42.0,-100.00,SW,227,5.0,8.0,97,0.00,,,-99.99,,2013-03-05 18:32:00,
2013-03-05 13:42:00,42.0,42.0,-100.00,SW,227,5.0,8.0,97,0.00,,,-99.99,,2013-03-05 18:42:00,
2013-03-05 13:52:00,43.0,42.0,-100.00,WSW,241,5.0,9.0,96,0.33,,,-99.99,,2013-03-05 18:52:00,
2013-03-05 14:01:00,42.0,41.0,-100.00,WSW,248,9.0,11.0,97,0.34,,,-99.99,,2013-03-05 19:01:00,
2013-03-05 14:11:00,42.0,41.0,-100.00,WSW,248,9.0,11.0,97,0.34,,,-99.99,,2013-03-05 19:11:00,
2013-03-05 14:22:00,42.0,42.0,-100.00,SSW,206,3.0,7.0,98,0.33,,,-99.99,,2013-03-05 19:22:00,
2013-03-05 14:32:00,42.0,41.0,-100.00,SSW,192,1.0,3.0,99,0.37,,,-99.99,,2013-03-05 19:32:00,
2013-03-05 14:42:00,42.0,41.0,-100.00,SSW,192,1.0,3.0,99,0.37,,,-99.99,,2013-03-05 19:42:00,
2013-03-05 14:52:00,42.0,41.0,-100.00,South,189,2.0,3.0,99,0.16,,,-99.99,,2013-03-05 19:52:00,
2013-03-05 15:01:00,42.0,42.0,-100.00,NNE,24,1.0,2.0,99,0.33,,,-99.99,,2013-03-05 20:01:00,
2013-03-05 15:11:00,42.0,42.0,-100.00,NNE,24,1.0,2.0,99,0.33,,,-99.99,,2013-03-05 20:11:00,
2013-03-05 15:22:00,43.0,43.0,-100.00,NW,325,3.0,4.0,99,0.31,,,1.14,,2013-03-05 20:22:00,
2013-03-05 15:32:00,45.0,45.0,-100.00,West,270,6.0,8.0,99,0.00,,,1.17,,2013-03-05 20:32:00,
2013-03-05 15:42:00,45.0,45.0,-100.00,West,270,6.0,8.0,99,0.00,,,1.17,,2013-03-05 20:42:00,
2013-03-05 15:52:00,45.0,45.0,-100.00,WSW,251,6.0,8.0,97,0.00,,,1.17,,2013-03-05 20:52:00,
2013-03-05 16:02:00,45.0,44.0,-100.00,ESE,110,4.0,12.0,97,0.00,,,1.17,,2013-03-05 21:02:00,
2013-03-05 16:11:00,45.0,44.0,-100.00,ESE,110,4.0,12.0,97,0.00,,,1.17,,2013-03-05 21:11:00,
2013-03-05 16:22:00,46.0,44.0,-100.00,SSW,203,4.0,8.0,92,0.03,,,1.17,,2013-03-05 21:22:00,
2013-03-05 16:32:00,45.0,44.0,-100.00,SSE,150,3.0,6.0,95,0.04,,,1.20,,2013-03-05 21:32:00,
2013-03-05 16:42:00,45.0,44.0,-100.00,SSE,150,3.0,6.0,95,0.04,,,1.20,,2013-03-05 21:42:00,
2013-03-05 16:52:00,45.0,44.0,-100.00,SSE,150,3.0,6.0,95,0.04,,,1.20,,2013-03-05 21:52:00,
2013-03-05 17:01:00,47.0,44.0,-100.00,WSW,244,12.0,16.0,92,0.13,,,1.27,,2013-03-05 22:01:00,
2013-03-05 17:12:00,47.0,44.0,-100.00,WSW,244,12.0,16.0,92,0.13,,,1.27,,2013-03-05 22:12:00,
2013-03-05 17:22:00,47.0,44.0,-100.00,WSW,258,13.0,17.0,90,0.35,,,1.31,,2013-03-05 22:22:00,
2013-03-05 17:32:00,46.0,44.0,-100.00,WNW,282,5.0,7.0,93,0.37,,,1.40,,2013-03-05 22:32:00,
2013-03-05 17:42:00,46.0,44.0,-100.00,WNW,282,5.0,7.0,93,0.37,,,1.40,,2013-03-05 22:42:00,
2013-03-05 17:52:00,46.0,44.0,-100.00,West,281,1.0,1.0,95,0.38,,,1.49,,2013-03-05 22:52:00,
2013-03-05 18:01:00,45.0,44.0,-100.00,SSW,203,2.0,4.0,97,0.37,,,1.58,,2013-03-05 23:01:00,
2013-03-05 18:11:00,45.0,44.0,-100.00,SSW,203,2.0,4.0,97,0.37,,,1.58,,2013-03-05 23:11:00,
2013-03-05 18:22:00,45.0,44.0,-100.00,WSW,250,7.0,10.0,98,0.35,,,1.67,,2013-03-05 23:22:00,
2013-03-05 18:32:00,44.0,44.0,-100.00,SSW,192,2.0,5.0,98,0.09,,,1.74,,2013-03-05 23:32:00,
2013-03-05 18:42:00,44.0,44.0,-100.00,SSW,192,2.0,5.0,98,0.09,,,1.74,,2013-03-05 23:42:00,
2013-03-05 18:53:00,44.0,44.0,-100.00,SSW,210,5.0,7.0,99,0.26,,,1.79,,2013-03-05 23:53:00,
2013-03-05 19:02:00,44.0,44.0,-100.00,SSW,210,5.0,7.0,99,0.26,,,1.79,,2013-03-06 00:02:00,
2013-03-05 19:11:00,44.0,44.0,-100.00,SSW,210,5.0,7.0,99,0.26,,,1.79,,2013-03-06 00:11:00,
2013-03-05 19:22:00,44.0,44.0,-100.00,WSW,240,7.0,11.0,99,0.16,,,1.82,,2013-03-06 00:22:00,
2013-03-05 19:32:00,44.0,44.0,-100.00,WSW,246,3.0,5.0,99,0.00,,,1.87,,2013-03-06 00:32:00,
2013-03-05 19:42:00,44.0,44.0,-100.00,WSW,246,3.0,5.0,99,0.00,,,1.87,,2013-03-06 00:42:00,
2013-03-05 19:52:00,44.0,44.0,-100.00,WSW,240,6.0,11.0,98,0.00,,,1.87,,2013-03-06 00:52:00,
2013-03-05 20:02:00,44.0,43.0,-100.00,SSW,192,4.0,6.0,98,0.33,,,1.89,,2013-03-06 01:02:00,
2013-03-05 20:11:00,44.0,43.0,-100.00,SSW,192,4.0,6.0,98,0.33,,,1.89,,2013-03-06 01:11:00,
2013-03-05 20:22:00,44.0,43.0,-100.00,SW,219,9.0,14.0,99,0.28,,,1.98,,2013-03-06 01:22:00,
2013-03-05 20:32:00,43.0,43.0,-100.00,SW,230,8.0,13.0,99,0.17,,,2.04,,2013-03-06 01:32:00,
2013-03-05 20:42:00,43.0,43.0,-100.00,SW,230,8.0,13.0,99,0.17,,,2.04,,2013-03-06 01:42:00,
2013-03-05 20:52:00,43.0,43.0,-100.00,SW,216,10.0,16.0,99,0.07,,,2.06,,2013-03-06 01:52:00,
2013-03-05 21:01:00,42.0,42.0,-100.00,WSW,244,8.0,14.0,100,0.27,,,2.08,,2013-03-06 02:01:00,
2013-03-05 21:11:00,42.0,42.0,-100.00,WSW,244,8.0,14.0,100,0.27,,,2.08,,2013-03-06 02:11:00,
2013-03-05 21:22:00,41.0,41.0,-100.00,SSW,206,6.0,10.0,99,0.47,,,2.17,,2013-03-06 02:22:00,
2013-03-05 21:32:00,39.0,39.0,-100.00,SW,224,6.0,9.0,98,0.01,,,2.23,,2013-03-06 02:32:00,
2013-03-05 21:42:00,39.0,39.0,-100.00,SW,224,6.0,9.0,98,0.01,,,2.23,,2013-03-06 02:42:00,
2013-03-05 21:52:00,39.0,39.0,-100.00,SW,224,6.0,9.0,98,0.01,,,2.23,,2013-03-06 02:52:00,
2013-03-05 22:02:00,35.0,33.0,-100.00,WSW,241,7.0,13.0,93,0.00,,,2.23,,2013-03-06 03:02:00,
2013-03-05 22:11:00,35.0,33.0,-100.00,WSW,241,7.0,13.0,93,0.00,,,2.23,,2013-03-06 03:11:00,
2013-03-05 22:22:00,33.0,31.0,-100.00,WSW,256,10.0,13.0,92,0.00,,,2.23,,2013-03-06 03:22:00,
2013-03-05 22:32:00,32.0,31.0,-100.00,SW,232,6.0,10.0,94,0.00,,,2.23,,2013-03-06 03:32:00,
2013-03-05 22:42:00,32.0,31.0,-100.00,SW,232,6.0,10.0,94,0.00,,,2.23,,2013-03-06 03:42:00,
2013-03-05 22:53:00,32.0,31.0,-100.00,SW,215,6.0,13.0,96,0.00,,,2.23,,2013-03-06 03:53:00,
2013-03-05 23:02:00,30.0,30.0,-100.00,SSW,212,6.0,11.0,98,0.00,,,2.23,,2013-03-06 04:02:00,
2013-03-05 23:11:00,30.0,30.0,-100.00,SSW,212,6.0,11.0,98,0.00,,,2.23,,2013-03-06 04:11:00,
2013-03-05 23:22:00,30.0,30.0,-100.00,SW,224,7.0,15.0,99,0.00,,,2.23,,2013-03-06 04:22:00,
2013-03-05 23:32:00,29.0,29.0,-100.00,WSW,240,6.0,13.0,99,0.00,,,2.23,,2013-03-06 04:32:00,
2013-03-05 23:42:00,29.0,29.0,-100.00,WSW,240,6.0,13.0,99,0.00,,,2.23,,2013-03-06 04:42:00,
2013-03-05 23:52:00,29.0,29.0,-100.00,SW,230,3.0,5.0,99,0.00,,,2.23,,2013-03-06 04:52:00,